Theta_e
307 308 308 304 307 312 313 313 313 314 315 315 314 314 314 313 311 312 315 318 313 306 303 309 310 313 314 314 314 315 312 311 313 315 315 316 315 317 317 317 319 319 319 320 319
306 306 307 308 307 305 308 310 311 311 311 313 313 313 313 312 312 311 310 315 318 312 305 310 313 313 314 314 314 313 311 313 313 314 313 314 314 316 317 316 317 317 318 319 319
305 306 305 306 307 308 306 305 304 304 304 306 309 311 311 309 311 313 311 316 317 316 307 314 314 314 314 314 314 312 312 311 313 314 313 313 314 314 315 315 316 317 317 318 318
304 304 304 305 305 306 308 308 306 305 304 304 303 302 302 308 310 312 315 316 312 312 306 314 315 314 312 312 314 313 313 312 313 314 313 312 313 312 313 315 316 316 317 317 317
304 303 303 302 304 305 305 307 308 306 305 304 304 304 303 309 309 313 314 312 310 311 307 312 312 313 312 312 313 312 312 314 314 314 314 313 312 311 312 315 315 314 316 318 317
303 303 302 302 303 304 304 305 307 307 306 304 303 303 303 307 305 312 314 314 312 313 310 306 308 313 313 314 312 313 313 313 314 314 314 313 312 312 313 313 314 314 315 316 317
304 303 303 302 301 303 303 304 305 307 306 305 304 303 304 306 304 311 313 313 314 312 311 310 308 308 311 310 311 312 311 310 311 313 312 313 310 310 313 313 313 314 314 315 315
304 305 303 303 302 301 303 303 303 305 307 306 305 303 304 303 303 309 311 311 311 312 311 310 309 309 311 312 311 312 310 310 310 311 312 312 311 309 313 312 313 313 314 314 315
304 304 304 302 302 301 301 302 303 304 304 307 306 304 305 305 304 303 311 312 312 312 311 311 311 311 311 310 309 310 309 309 310 310 311 310 310 310 312 312 311 313 314 313 314
304 304 304 303 302 301 301 300 301 303 303 304 306 305 304 305 305 306 306 311 311 312 312 311 312 309 307 309 309 309 310 310 310 311 309 310 309 309 313 312 312 313 314 314 314
304 304 304 304 302 301 299 301 301 302 303 305 305 304 305 305 307 307 306 309 309 310 310 311 310 311 309 309 308 308 308 309 311 310 311 309 309 310 311 312 312 314 313 314 314
303 304 304 303 302 301 300 301 301 302 303 302 305 305 305 305 306 307 308 308 308 308 308 310 311 309 310 308 308 309 309 309 310 311 311 310 310 310 310 310 312 313 313 314 314
303 304 304 303 303 301 301 301 300 302 302 304 302 305 305 305 305 306 309 307 307 307 308 308 307 308 310 311 311 308 309 309 310 311 310 311 311 310 310 311 312 312 313 313 313
303 303 303 303 302 301 301 301 300 302 302 300 304 303 304 305 305 305 306 309 308 308 307 307 308 307 308 311 311 313 309 309 310 311 311 310 313 311 310 311 310 312 312 313 314
301 303 303 302 302 301 302 301 300 302 300 298 303 303 303 304 303 304 303 304 307 307 307 306 307 307 309 309 309 311 310 309 309 310 310 310 309 310 310 311 312 310 313 313 314
298 302 302 302 301 302 302 301 301 301 300 301 302 303 304 304 303 304 304 304 305 306 307 306 306 306 307 307 308 308 310 310 309 310 313 311 311 310 310 310 310 310 312 314 315
298 299 303 302 301 301 301 302 302 302 300 299 302 302 303 303 303 304 304 304 304 307 306 306 306 306 306 306 307 308 311 313 314 313 313 309 310 311 309 309 310 310 312 314 315
296 299 302 301 300 300 301 301 301 299 297 301 302 302 303 303 303 303 304 303 303 304 302 304 303 304 305 306 306 308 309 312 312 311 310 309 310 310 308 309 310 310 313 312 314
295 299 299 302 301 300 300 301 299 297 298 301 302 301 302 302 302 302 302 302 304 303 304 303 304 303 304 305 306 307 309 309 311 304 307 308 309 309 308 307 308 309 311 312 313
295 298 299 300 300 299 300 300 300 299 299 299 300 298 296 301 300 303 302 302 302 303 303 303 304 303 304 304 305 307 307 309 311 312 312 308 307 308 308 309 309 308 309 311 312
295 298 299 299 300 299 300 297 296 299 299 300 300 297 299 299 300 300 300 301 302 302 303 304 304 303 303 305 306 306 308 308 309 310 311 311 308 306 306 307 308 307 310 312 311
296 298 298 299 299 299 298 294 299 298 299 299 299 299 298 298 299 299 300 300 302 303 303 303 304 304 304 303 306 306 307 308 309 309 309 311 309 305 305 305 305 308 310 312 312
296 298 298 299 300 299 297 294 297 298 298 299 299 299 298 298 296 298 299 301 302 303 305 304 305 305 299 299 301 301 307 308 309 308 309 310 309 307 307 305 307 307 308 309 310
297 299 299 298 297 297 293 296 295 298 299 298 299 299 299 297 296 294 300 301 301 302 303 302 305 306 303 303 304 305 305 307 307 308 311 309 308 306 305 306 305 309 309 309 310
296 296 298 298 296 296 293 294 295 296 297 299 296 297 297 293 297 295 297 300 301 301 302 304 302 304 304 303 304 303 303 305 308 306 307 309 308 307 305 305 307 307 308 308 308
295 295 296 296 295 295 297 290 296 297 296 297 295 296 295 294 298 296 299 300 301 302 302 303 303 295 293 302 303 304 304 305 305 308 308 308 310 307 306 307 307 307 308 308 308
296 296 296 297 296 294 296 294 296 296 297 297 298 297 296 297 298 300 300 301 301 301 302 302 301 295 292 294 297 302 301 304 303 304 307 309 308 308 307 306 306 308 309 308 308
Wind_Speed
16 15 16 16 19 22 22 23 25 22 20 19 18 17 17 18 17 15 12 8 9 8 7 7 12 12 12 7 10 2 2 4 4 5 5 8 1 3 2 4 3 5 5 5 14
19 18 15 16 16 18 21 22 23 23 23 22 21 20 20 20 20 21 14 12 13 11 10 11 13 12 6 8 6 5 4 8 7 1 3 5 8 1 2 2 3 6 5 10 14
21 21 21 18 16 16 18 18 18 19 20 21 21 21 20 17 17 11 9 15 14 12 12 13 9 11 7 7 9 8 6 3 6 6 9 7 7 11 4 1 5 9 17 17 18
22 22 22 24 19 17 17 16 16 15 14 14 15 15 14 8 6 4 7 10 8 8 17 18 17 13 7 6 14 5 13 15 13 23 10 3 10 9 5 7 8 14 9 20 21
27 24 21 22 22 20 20 18 17 15 13 11 11 11 9 9 14 5 4 8 8 2 16 20 17 11 8 8 17 4 7 14 17 21 11 7 9 6 19 11 9 13 10 14 21
27 26 24 21 23 23 22 22 18 15 14 12 7 6 9 8 11 11 13 13 7 4 5 17 8 14 5 8 5 4 15 15 15 23 15 5 12 6 17 17 16 17 18 14 19
31 28 26 22 20 22 23 22 23 18 16 14 12 11 13 23 11 11 16 20 16 10 10 11 14 9 4 4 8 8 5 7 5 4 6 7 9 9 34 27 28 20 20 22 23
33 31 28 26 24 23 23 23 23 22 17 16 15 12 12 10 15 17 15 14 15 16 15 11 17 12 4 6 6 2 1 3 4 11 8 9 10 8 24 19 30 35 33 23 25
35 35 32 30 26 25 25 21 22 22 20 15 14 13 9 7 20 23 21 14 14 14 14 11 10 5 3 3 4 3 4 5 4 10 6 14 6 10 30 35 28 31 33 36 34
38 35 35 30 30 26 22 25 20 21 18 17 15 6 16 11 14 11 23 22 13 7 6 4 4 3 3 5 11 7 5 6 7 3 10 11 9 8 18 16 18 19 23 31 34
39 37 35 32 27 23 19 17 11 11 25 19 13 14 4 14 6 9 18 17 18 14 11 11 4 14 19 16 2 2 6 5 2 6 3 7 12 15 23 23 22 26 27 24 25
42 39 37 35 30 25 25 29 20 3 7 36 20 26 14 11 8 9 16 17 16 16 8 6 20 12 1 7 10 10 11 12 5 9 4 7 10 9 8 9 21 27 32 33 32
43 42 38 36 32 30 35 35 23 16 3 8 40 26 20 17 7 17 20 17 10 10 12 13 7 16 11 9 12 13 16 10 9 7 7 4 13 7 9 17 26 33 34 39 40
34 42 38 37 35 35 39 32 27 11 4 5 11 19 34 7 7 26 19 11 7 14 11 11 22 16 8 16 10 16 6 9 10 4 10 5 21 17 10 20 14 28 33 41 47
33 41 41 40 34 40 41 32 30 14 4 7 10 11 23 24 12 19 43 26 10 8 9 12 8 14 16 22 9 13 7 10 8 7 4 12 8 10 15 21 18 14 34 37 42
34 30 41 41 37 41 37 34 31 6 7 7 9 11 9 25 7 3 16 20 16 5 9 17 1 8 9 14 17 10 6 7 4 7 11 26 15 23 18 8 5 14 31 35 38
28 33 45 39 43 42 36 38 8 9 2 4 6 12 14 13 18 3 6 17 8 11 17 18 16 5 5 4 9 10 6 5 6 9 17 7 14 25 10 12 15 18 21 28 28
31 31 39 40 41 45 42 12 7 8 10 5 7 12 10 10 11 14 8 8 16 4 4 11 6 15 11 13 8 10 18 8 11 13 20 5 11 14 11 26 35 27 21 14 15
29 32 32 43 46 42 32 13 7 7 15 11 9 7 6 8 4 8 10 5 12 17 8 5 7 5 9 18 17 12 11 25 12 3 4 6 24 20 13 10 8 17 18 21 19
24 22 30 50 51 41 13 10 5 7 12 6 8 6 6 9 6 11 9 8 8 15 15 5 5 4 6 8 15 19 13 7 11 21 24 10 12 9 11 21 22 13 17 23 25
24 12 27 52 48 28 9 7 4 4 10 7 7 4 6 7 9 6 7 5 14 11 16 16 6 6 1 7 15 12 16 15 9 12 14 16 20 10 9 10 15 14 27 30 22
10 4 38 50 9 6 9 9 8 6 5 5 6 6 6 7 7 7 9 8 7 4 6 18 8 13 22 10 1 7 20 21 15 18 11 18 17 2 3 7 10 20 32 36 26
6 8 47 54 9 7 7 4 5 6 5 3 4 5 4 6 2 6 6 6 17 5 2 3 5 11 6 5 4 4 7 11 13 17 22 14 16 15 17 11 10 8 7 19 22
9 3 16 28 13 15 9 9 5 4 5 5 5 4 4 1 2 3 2 2 5 4 13 13 6 6 9 5 2 2 4 15 15 8 16 19 21 18 10 19 10 7 8 9 14
8 4 5 8 6 11 7 7 7 5 3 10 3 7 7 4 3 4 2 2 3 5 1 3 7 4 6 5 4 6 11 11 17 21 10 13 21 22 8 12 20 25 16 17 17
7 5 2 11 19 13 8 5 11 6 8 6 7 10 7 8 9 6 7 6 6 4 5 5 3 3 4 4 7 8 11 12 16 14 14 16 18 15 14 23 10 15 18 15 15
15 12 16 14 13 9 11 11 13 11 5 12 12 6 8 17 14 8 5 2 5 1 7 3 2 3 4 3 1 4 13 16 12 11 15 11 18 9 9 9 3 4 11 15 14
Wind_Direction
274 273 277 268 258 254 256 256 260 267 270 273 279 286 292 297 300 299 288 256 254 245 236 188 184 176 166 199 203 212 59 220 230 178 253 335 176 144 127 135 127 174 194 195 179
263 261 265 270 271 267 259 259 261 266 271 271 271 277 287 294 297 286 275 252 245 248 228 197 182 167 177 201 188 153 158 221 210 329 327 336 5 182 90 124 159 171 170 172 181
254 261 246 253 256 263 268 265 267 269 268 269 270 272 277 290 302 277 254 234 245 245 209 186 169 176 217 204 191 188 203 220 274 18 16 343 331 333 119 215 213 236 204 200 199
261 257 260 244 249 248 255 261 264 269 273 274 270 271 271 241 239 326 215 198 215 238 194 188 195 193 193 204 221 211 229 239 271 294 304 302 316 332 305 241 282 292 299 221 209
263 260 256 249 241 244 243 250 256 260 268 275 272 263 257 220 236 209 235 211 227 183 200 195 201 199 179 196 231 229 243 240 263 279 289 290 273 269 285 262 269 293 267 232 223
264 262 259 257 239 240 244 241 249 241 256 266 263 256 235 237 232 244 247 237 214 229 211 201 221 220 260 245 182 250 245 269 262 259 264 253 272 266 264 273 277 272 257 241 233
259 259 257 253 244 245 241 243 242 244 238 249 254 258 252 237 217 216 240 241 241 224 232 234 212 261 321 285 293 269 276 293 217 235 229 259 274 204 258 258 256 255 249 244 248
262 254 252 254 251 243 242 240 233 240 237 234 242 249 249 249 236 220 216 231 237 218 217 217 225 249 213 312 343 251 127 223 205 196 235 174 259 225 250 256 252 252 246 243 239
255 254 250 250 250 249 239 241 237 233 237 234 231 232 260 244 227 224 204 194 192 199 208 199 201 209 171 101 345 280 206 201 290 219 194 193 251 233 249 253 256 259 256 249 248
255 252 248 240 246 243 248 241 246 233 229 234 226 212 238 223 230 232 214 203 197 197 210 216 187 193 200 150 219 197 206 223 204 224 195 223 242 254 238 264 270 274 263 250 240
254 252 241 239 240 230 232 207 207 225 222 199 201 206 321 203 144 225 190 186 212 228 206 170 178 213 206 213 335 304 246 241 225 229 288 240 247 239 242 248 254 261 265 255 242
252 246 243 235 229 224 220 202 201 187 214 225 224 222 213 163 182 175 170 178 190 209 181 227 232 224 193 209 221 236 251 263 292 273 221 254 253 228 229 222 237 246 254 259 256
249 243 238 230 222 221 218 217 211 220 281 216 223 221 218 220 212 192 183 189 187 195 196 211 227 199 205 227 228 224 231 240 243 326 284 305 273 243 254 245 240 248 248 251 249
251 237 232 230 222 217 220 213 208 215 222 230 192 228 222 208 252 212 198 191 211 197 187 232 242 254 228 233 220 243 211 227 231 221 254 162 274 242 221 247 226 235 239 239 245
256 233 229 222 214 211 211 199 194 208 227 213 176 188 205 191 142 215 219 218 207 183 164 225 175 196 220 234 204 251 215 226 227 224 273 250 274 288 201 235 233 221 236 243 244
266 238 223 221 214 211 196 184 179 189 221 150 148 166 150 199 217 355 178 198 221 240 245 236 311 178 205 224 223 248 233 271 223 231 239 238 225 264 243 237 234 226 231 244 245
262 252 218 215 197 202 178 166 184 215 204 185 168 174 171 183 211 210 187 187 183 193 228 253 251 273 266 240 222 211 194 228 228 222 238 179 220 239 293 283 238 241 242 230 227
260 249 232 210 187 170 177 169 197 146 187 171 145 153 181 153 207 211 192 172 217 235 146 210 270 206 225 209 200 209 207 212 220 222 245 108 238 231 224 240 247 248 237 227 228
258 248 235 194 199 175 172 198 175 165 182 153 132 127 196 202 144 166 213 185 204 208 184 189 240 217 197 211 195 223 215 223 255 292 277 201 245 264 270 286 285 244 238 219 221
248 233 231 189 189 176 185 175 172 197 163 110 152 142 156 187 158 180 178 220 211 207 213 242 271 227 243 214 226 214 214 226 218 240 246 243 251 235 223 235 241 243 233 234 218
245 223 224 185 179 188 195 174 155 250 148 126 183 131 169 173 179 180 195 235 195 211 205 228 250 240 21 194 220 218 229 236 240 218 237 250 251 253 262 256 237 234 233 238 226
231 198 179 176 174 174 162 168 142 182 109 100 131 165 193 153 181 200 211 204 166 89 197 213 215 238 236 230 116 234 232 231 232 232 232 242 245 144 305 286 260 234 239 241 233
213 155 174 167 168 144 120 95 140 145 133 109 116 154 184 161 127 190 219 227 239 146 168 326 224 231 318 359 279 188 215 251 259 254 240 237 251 247 273 291 324 337 270 243 207
192 161 166 181 147 143 126 162 133 137 133 120 130 116 80 82 135 231 219 67 48 17 229 175 228 206 228 142 108 139 272 232 240 273 239 237 248 258 263 262 277 260 226 174 175
206 223 191 150 118 131 96 143 126 123 183 130 53 170 167 188 150 205 201 281 250 222 120 294 228 199 244 214 208 222 263 252 239 237 254 280 237 243 223 234 267 260 221 195 189
152 193 114 154 127 129 153 170 149 147 148 171 175 185 163 181 193 201 192 192 224 186 159 178 274 113 287 222 211 229 230 237 222 225 240 251 268 262 247 258 294 275 202 177 176
206 187 120 144 144 130 180 162 187 144 212 163 185 131 178 219 214 169 86 148 155 145 179 180 148 79 271 309 311 277 230 224 243 225 212 229 239 247 281 279 360 294 192 170 160